Content
SEND FEEDBACK

Daily
Averages
Monthly
Summary
Germany

MUNICH, GERMANY


Home > Europe > Germany
Elevation: 1735 feet     Latitude: 48 08N     Longitude: 011 42E

WEATHER
 
SELECT A DAY
Number of Records: 287,998;   Date Range: 7/1/96 - 4/19/14
 
SHARE

PRINT THIS DATA

[ ← Previous Day ]
WEATHER ALMANAC - JULY 8, 2013
[ Next Day → ]
[ °C ]   °F
We're sorry. There is no daily almanac available for Munich, Germany on July 8, 2013.
WEATHER BY HOUR - JULY 8, 2013
[ °C ]   °F
Local TimeTemperatureDewpointHumidityBarometerVisibilityWind DirectionWind SpeedGust SpeedPrecipitationEventsConditions
12:50 AM64.4 °F57.2 °F77 %30.36 in6.2 miNE (50°)6.9 mphScattered Clouds
1:20 AM62.6 °F57.2 °F82 %30.36 in6.2 miNE (40°)8.1 mphScattered Clouds
1:50 AM62.6 °F57.2 °F82 %30.36 inNE (40°)6.9 mphClear
2:20 AM62.6 °F57.2 °F82 %30.36 inNE (40°)6.9 mphClear
2:50 AM62.6 °F57.2 °F82 %30.36 inNE (40°)6.9 mphClear
3:20 AM62.6 °F55.4 °F77 %30.33 inNE (50°)8.1 mphClear
3:50 AM60.8 °F55.4 °F82 %30.33 inNE (50°)6.9 mphClear
4:20 AM60.8 °F55.4 °F82 %30.33 inNE (50°)6.9 mphClear
4:50 AM60.8 °F55.4 °F82 %30.33 inNE (50°)6.9 mphClear
5:20 AM59.0 °F55.4 °F88 %30.33 inNE (40°)6.9 mphClear
5:50 AM59.0 °F53.6 °F82 %30.33 inNE (50°)5.8 mphClear
6:20 AM59.0 °F55.4 °F88 %30.33 inNE (50°)8.1 mphClear
6:50 AM60.8 °F55.4 °F82 %30.33 inNE (50°)8.1 mphClear
7:20 AM62.6 °F55.4 °F77 %30.36 inNE (50°)8.1 mphClear
7:50 AM64.4 °F57.2 °F77 %30.36 inNE (50°)9.2 mphClear
8:20 AM66.2 °F57.2 °F73 %30.36 inENE (70°)9.2 mphClear
8:50 AM68.0 °F57.2 °F68 %30.36 inENE (60°)8.1 mphClear
9:20 AM68.0 °F57.2 °F68 %30.36 inEast (80°)11.5 mphClear
9:50 AM69.8 °F57.2 °F64 %30.36 inEast (80°)11.5 mphClear
10:20 AM71.6 °F59.0 °F64 %30.36 inEast (80°)13.8 mphClear
10:50 AM71.6 °F59.0 °F64 %30.36 inEast (80°)13.8 mphClear
11:20 AM73.4 °F59.0 °F61 %30.36 inEast (80°)12.7 mphClear
11:50 AM73.4 °F59.0 °F61 %30.36 in6.2 miEast (80°)11.5 mph25.3 mphMostly Cloudy
12:20 PM73.4 °F57.2 °F57 %30.36 in6.2 miENE (70°)10.4 mphMostly Cloudy
12:50 PM73.4 °F55.4 °F53 %30.36 in6.2 miENE (70°)13.8 mphMostly Cloudy
1:20 PM73.4 °F53.6 °F50 %30.36 in6.2 miENE (70°)12.7 mphMostly Cloudy
1:50 PM75.2 °F55.4 °F50 %30.33 in6.2 miENE (70°)11.5 mphMostly Cloudy
2:20 PM75.2 °F53.6 °F47 %30.33 inNE (50°)11.5 mphClear
2:50 PM77.0 °F57.2 °F50 %30.33 inENE (70°)10.4 mphClear
3:20 PM75.2 °F51.8 °F44 %30.33 inENE (70°)9.2 mphClear
3:50 PM77.0 °F51.8 °F41 %30.33 inENE (70°)9.2 mphClear
4:20 PM77.0 °F55.4 °F47 %30.30 inNE (50°)11.5 mphClear
4:50 PM77.0 °F51.8 °F41 %30.30 inNE (50°)12.7 mphClear
5:20 PM77.0 °F51.8 °F41 %30.30 inNE (40°)13.8 mphClear
5:50 PM77.0 °F53.6 °F44 %30.30 inNE (50°)11.5 mphClear
6:20 PM75.2 °F51.8 °F44 %30.27 inENE (60°)11.5 mphClear
6:50 PM75.2 °F51.8 °F44 %30.27 inEast (80°)9.2 mphClear
7:20 PM75.2 °F53.6 °F47 %30.27 inEast (80°)8.1 mphClear
7:50 PM73.4 °F55.4 °F53 %30.27 inEast (90°)6.9 mphClear
8:20 PM71.6 °F55.4 °F57 %30.30 inEast (90°)5.8 mphClear
8:50 PM69.8 °F55.4 °F60 %30.30 inNNE (30°)3.5 mphClear
9:20 PM68.0 °F57.2 °F68 %30.30 inNE (40°)6.9 mphClear
9:50 PM68.0 °F57.2 °F68 %30.30 inNE (40°)8.1 mphClear
10:20 PM68.0 °F57.2 °F68 %30.30 inNE (40°)8.1 mphClear
10:50 PM66.2 °F55.4 °F68 %30.30 inNE (50°)5.8 mphClear
11:20 PM64.4 °F55.4 °F73 %30.30 inNE (40°)5.8 mphClear
11:50 PM64.4 °F55.4 °F73 %30.30 inNE (50°)6.9 mphClear
Hourly data recorded from EDDM, located 15.73 miles away from Munich, Germany







STORIES FROM OUR PARTNERS